Newport, RI

12:37 PM EDT on August 18, 2017 (GMT -0400)
Newport State

Weather History for KUUU - February, 2013

Change the Weather History Date:

Friday, February 15, 2013

  Actual Average Record
Temperature  
Mean Temperature 39 °F -  
Max Temperature 45 °F 40 °F 57 °F (1984)
Min Temperature 33 °F 25 °F -1 °F (1987)
Degree Days  
Heating Degree Days 26    
Moisture  
Dew Point 34 °F    
Average Humidity 87    
Maximum Humidity 100    
Minimum Humidity 68    
Precipitation  
Precipitation 0.00 in - - ()
Sea Level Pressure  
Sea Level Pressure 29.99 in    
Wind  
Wind Speed 5 mph (South)    
Max Wind Speed 14 mph    
Max Gust Speed 23 mph    
Visibility 6 miles    
Events Fog    
Averages and records for this station are not official NWS values.
T = Trace of Precipitation, MM = Missing Value Source: NWS Daily Summary

Daily Weather History Graph

Daily Weather History Graph

Search for Another Location

Airport or City:

Trip Planner

Search our weather history database for the weather conditions in past years. The results will help you decide how hot, cold, wet, or windy it might be!

Date:

Astronomy

Feb. 15, 2013 Rise Set
Actual Time 6:39 AM EST 5:19 PM EST
Civil Twilight 6:11 AM EST 5:47 PM EST
Nautical Twilight 5:39 AM EST 6:19 PM EST
Astronomical Twilight 5:07 AM EST 6:52 PM EST
Moon 9:09 AM EST (2/15) 11:22 PM EST (2/15)
Length of Visible Light 11h 35m
Length of Day
10h 39m
Waxing Crescent, 30% of the Moon is Illuminated
Feb 15
Waxing Crescent
Feb 17
First Quarter
Feb 25
Full
Mar 4
Last Quarter
Mar 11
New

Hourly Weather History & Observations

Time (EST) Temp. Windchill Dew Point Humidity Pressure Visibility Wind Dir Wind Speed Gust Speed Precip Events Conditions
12:53 AM 33.1 °F 30.0 °F 28.9 °F 85% 30.01 in 10.0 mi South 3.5 mph - N/A   Clear
1:53 AM 35.1 °F 32.2 °F 30.0 °F 82% 30.02 in 10.0 mi South 3.5 mph - N/A   Clear
2:25 AM 33.8 °F 29.6 °F 30.2 °F 87% 30.01 in 10.0 mi South 4.6 mph - N/A   Mostly Cloudy
2:32 AM 33.8 °F 29.6 °F 30.2 °F 87% 30.01 in 10.0 mi South 4.6 mph - N/A   Scattered Clouds
2:53 AM 34.0 °F 29.8 °F 30.0 °F 85% 30.01 in 9.0 mi South 4.6 mph - N/A   Clear
3:18 AM 35.6 °F 30.7 °F 32.0 °F 87% 30.00 in 9.0 mi SSW 5.8 mph - N/A   Mostly Cloudy
3:53 AM 37.9 °F 34.4 °F 34.0 °F 86% 30.01 in 8.0 mi SW 4.6 mph - N/A   Overcast
4:37 AM 37.4 °F - 35.6 °F 93% 30.01 in 6.0 mi Calm Calm - N/A   Overcast
4:53 AM 37.0 °F - 34.0 °F 89% 30.01 in 5.0 mi Calm Calm - N/A   Mostly Cloudy
5:03 AM 37.4 °F 34.9 °F 33.8 °F 87% 30.01 in 5.0 mi SW 3.5 mph - N/A   Scattered Clouds
5:48 AM 35.6 °F - 33.8 °F 93% 30.01 in 2.5 mi Calm Calm - N/A   Clear
5:53 AM 35.1 °F - 33.1 °F 92% 30.02 in 2.5 mi Calm Calm - N/A   Clear
6:53 AM 36.0 °F 30.3 °F 34.0 °F 93% 30.01 in 2.0 mi South 6.9 mph - N/A   Clear
7:29 AM 37.4 °F 34.9 °F 35.6 °F 93% 30.02 in 3.0 mi SW 3.5 mph - N/A   Clear
7:40 AM 37.4 °F 33.8 °F 35.6 °F 93% 30.02 in 2.5 mi Variable 4.6 mph - N/A   Clear
7:53 AM 37.0 °F 32.4 °F 36.0 °F 96% 30.02 in 2.5 mi SSW 5.8 mph - N/A   Clear
8:03 AM 37.4 °F 32.1 °F 35.6 °F 93% 30.02 in 3.0 mi South 6.9 mph - N/A   Clear
8:53 AM 39.9 °F 32.9 °F 36.0 °F 86% 30.04 in 5.0 mi SSW 11.5 mph 18.4 mph N/A   Clear
9:53 AM 42.1 °F 36.1 °F 33.1 °F 70% 30.04 in 7.0 mi SSW 10.4 mph 18.4 mph N/A   Clear
10:53 AM 44.1 °F 38.6 °F 34.0 °F 68% 30.03 in 8.0 mi SSW 10.4 mph 18.4 mph N/A   Clear
11:53 AM 44.1 °F 37.4 °F 35.1 °F 71% 30.01 in 9.0 mi South 13.8 mph 23.0 mph N/A   Clear
12:53 PM 44.1 °F 37.4 °F 37.0 °F 76% 29.99 in 9.0 mi South 13.8 mph - N/A   Clear
1:53 PM 45.0 °F 38.9 °F 37.0 °F 74% 29.98 in 10.0 mi South 12.7 mph 20.7 mph N/A   Clear
2:53 PM 45.0 °F 39.7 °F 37.0 °F 74% 29.97 in 10.0 mi SSW 10.4 mph 18.4 mph N/A   Clear
3:53 PM 44.1 °F 39.0 °F 37.0 °F 76% 29.96 in 10.0 mi SSW 9.2 mph - N/A   Clear
4:53 PM 43.0 °F 39.5 °F 36.0 °F 76% 29.95 in 10.0 mi SSW 5.8 mph 16.1 mph N/A   Clear
5:53 PM 39.9 °F 34.5 °F 36.0 °F 86% 29.96 in 10.0 mi South 8.1 mph - N/A   Clear
7:53 PM 39.9 °F 35.1 °F 37.0 °F 89% 29.96 in 8.0 mi SSW 6.9 mph - N/A   Clear
8:53 PM 39.9 °F 36.7 °F 37.0 °F 89% 29.95 in 8.0 mi South 4.6 mph - N/A   Clear
9:53 PM 36.0 °F - 35.1 °F 97% 29.95 in 3.0 mi Calm Calm - N/A   Clear
10:03 PM 35.6 °F 32.8 °F 33.8 °F 93% 29.95 in 2.0 mi SSE 3.5 mph - N/A   Clear
10:22 PM 35.6 °F 31.7 °F 33.8 °F 93% 29.95 in 1.2 mi ESE 4.6 mph - N/A   Partly Cloudy
10:29 PM 35.6 °F 31.7 °F 33.8 °F 93% 29.95 in 0.2 mi ESE 4.6 mph - N/A Fog Fog
10:53 PM 35.1 °F - 35.1 °F 100% 29.94 in 0.2 mi Calm Calm - N/A Fog Fog
11:53 PM 37.0 °F 34.5 °F 37.0 °F 100% 29.94 in 0.2 mi SE 3.5 mph - N/A Fog Fog